Weather in Novoye Ilyinskoye

Russia / Kurgan Oblast     55°14′52″N   68°03′22″E
temp.,
°C
wind,
m/s
gust,
m/s
humid.,
%
clouds,
%
prec.,
mm/h
press.,
hPa
HPBL,
m
6 may, thu
thu623:00+19s717375 0.0 999444
02:00+17ssw617325 0.0 997434
05:00+13wnw8146695 0.0 1000655
08:00+13wnw911570 0.0 1003999
11:00+15wnw911365 0.0 10061622
14:00+17wnw911295 0.0 10072060
17:00+16wnw10113047 0.0 10092305
20:00+12wnw611385 0.0 1012611
7 may, fri
fri723:00+9wnw38465 0.0 1014168
02:00+7wnw411520 0.0 1016286
05:00+5w511570 0.0 1019294
08:00+10wnw710410 0.0 1020999
11:00+14wnw673025 0.0 10211285
14:00+18wnw56242 0.0 10201558
17:00+19wnw45240 0.0 10201539
20:00+15w22350 0.0 102111
8 may, sat
sat823:00+12wsw22415 0.0 102210
02:00+10wsw22459 0.0 102210
05:00+10ssw2247100 0.0 102210
08:00+16s233484 0.0 1021335
11:00+19s3326100 0.0 10201428
14:00+21sse3422100 0.0 10182119
17:00+20se3324100 0.0 10181953
20:00+17ne3433100 0.0 101756
9 may, sun
sun923:00+15ne3536100 0.0 101674
02:00+14ene4841100 0.0 1015157
05:00+13ese3447100 0.0 101667
08:00+16nne453999 0.0 1015248
11:00+20e893099 0.0 10152020
14:00+22e7927100 0.0 10142922
17:00+22e81028100 0.0 10132734
20:00+17e6104694 0.0 1015577
10 may, mon
mon1023:00+14ne61254100 0.0 1016489
02:00+13ne61160100 0.0 1016343
05:00+12nne41166100 0.0 1017324
08:00+17ene6104982 0.1 1018936
11:00+20ene693468 0.1 10192387
14:00+23ne5728100 0.0 10182917
17:00+22nne66285 0.0 10192474
20:00+17nne35360 0.0 102067